FW8256 Weather Reports


time (UTC)temp
C
wind
direction
speed
KPH
gust
KPH
rain 1hr
cm
rain 24hr
cm
rain mn
cm
humidity
%
barometer
mb
20260506003044 10 34 4.8 17.7 0.00 0.00 0.00 80 1009.0
20260506001546 10 37 11.3 17.7 0.00 0.00 0.00 78 1008.9
20260506000041 10 46 8.0 20.9 0.00 0.00 0.00 78 1008.8
20260505234601 10 42 8.0 19.3 0.00 0.00 0.00 77 1008.5
20260505233041 10 43 11.3 22.5 0.00 0.00 0.00 76 1008.6
20260505231537 10 29 6.4 19.3 0.00 0.00 0.00 76 1009.2
20260505230033 10 36 8.0 22.5 0.00 0.00 0.00 76 1008.6
20260505224534 11 27 9.7 25.7 0.00 0.00 0.00 75 1008.3
20260505223028 11 360 9.7 22.5 0.00 0.00 0.00 74 1008.3
20260505221526 11 54 9.7 20.9 0.00 0.00 0.00 74 1008.2
20260505220026 11 35 9.7 33.8 0.00 0.00 0.00 74 1007.8
20260505214541 11 38 9.7 29.0 0.00 0.00 0.00 72 1007.5
20260505213021 12 30 14.5 29.0 0.00 0.00 0.00 72 1006.9
20260505211518 12 24 14.5 27.4 0.00 0.00 0.00 72 1007.1
20260505210019 12 12 12.9 22.5 0.00 0.00 0.00 73 1006.6
20260505204519 12 9 12.9 27.4 0.00 0.00 0.00 74 1006.8
20260505203022 12 9 8.0 20.9 0.00 0.00 0.00 75 1008.0
20260505201517 12 13 12.9 29.0 0.00 0.00 0.00 75 1006.6
20260505200009 12 9 12.9 27.4 0.00 0.00 0.00 76 1006.4
20260505194507 12 9 12.9 27.4 0.00 0.00 0.00 76 1006.5
20260505193009 12 9 11.3 29.0 0.00 0.00 0.00 78 1006.5
20260505191506 12 11 14.5 30.6 0.00 0.00 0.00 78 1006.5
20260505190002 12 9 12.9 25.7 0.00 0.00 0.00 79 1006.2
20260505184559 12 5 11.3 27.4 0.00 0.00 0.00 80 1006.4
20260505183056 12 54 12.9 22.5 0.00 0.00 0.00 79 1006.2
20260505181553 12 54 11.3 25.7 0.00 0.00 0.00 78 1006.2
20260505180104 13 17 17.7 32.2 0.00 0.00 0.00 77 1005.6
20260505174559 13 13 11.3 27.4 0.00 0.00 0.00 78 1005.2
20260505173046 13 57 9.7 22.5 0.00 0.00 0.00 79 1005.1
20260505171546 13 49 8.0 25.7 0.00 0.00 0.00 80 1004.9
20260505170040 13 38 6.4 22.5 0.00 0.00 0.00 80 1004.6
20260505164538 13 33 11.3 27.4 0.00 0.00 0.00 81 1004.5
20260505163035 13 19 8.0 22.5 0.00 0.00 0.00 81 1004.1
20260505161535 13 39 9.7 24.1 0.00 0.00 0.00 82 1003.7
20260505153021 15 49 12.9 27.4 0.00 0.00 0.00 82 1002.2
20260505151517 15 5 14.5 29.0 0.00 0.00 0.00 82 1001.8
20260505140110 21 23 3.2 8.0 0.00 0.00 0.00 81 999.5
20260505124555 20 26 0.0 3.2 0.00 0.00 0.00 82 998.9
20260505123101 20 23 0.0 1.6 0.00 0.00 0.00 81 999.0
20260505121551 20 23 0.0 3.2 0.00 0.00 0.00 80 998.6
20260505120051 20 23 0.0 6.4 0.00 0.00 0.00 80 998.4
20260505114549 20 25 3.2 9.7 0.00 0.00 0.00 79 998.2
20260505113051 20 222 4.8 17.7 0.00 0.00 0.00 79 997.1
20260505111545 20 156 4.8 16.1 0.00 0.00 0.00 78 996.7
20260505101539 21 360 6.4 16.1 0.00 0.00 0.00 77 996.3
20260505100038 21 360 6.4 22.5 0.00 0.00 0.00 77 996.3
20260505094636 21 360 6.4 16.1 0.00 0.00 0.00 77 996.2
20260505093038 21 360 6.4 17.7 0.00 0.00 0.00 77 996.2
20260505091540 21 360 8.0 16.1 0.00 0.00 0.00 77 996.1
20260505090031 21 189 8.0 16.1 0.00 0.00 0.00 77 996.3
20260505084532 21 237 6.4 14.5 0.00 0.00 0.00 77 996.5
20260505083027 21 360 6.4 14.5 0.00 0.00 0.00 76 996.6
20260505081523 22 360 6.4 19.3 0.00 0.00 0.00 76 996.9
20260505080021 21 207 8.0 16.1 0.00 0.00 0.00 76 997.0
20260505074519 21 360 9.7 19.3 0.00 0.00 0.00 76 997.0
20260505073017 21 360 4.8 17.7 0.00 0.00 0.00 76 997.3
20260505071515 22 360 8.0 22.5 0.00 0.00 0.00 75 997.5
20260505070013 22 139 8.0 20.9 0.00 0.00 0.00 75 997.6
20260505064509 22 360 9.7 22.5 0.00 0.00 0.00 74 997.8
20260505063007 22 360 9.7 25.7 0.00 0.00 0.00 74 997.9
20260505061508 22 360 11.3 24.1 0.00 0.00 0.00 73 997.9
20260505060003 22 159 9.7 25.7 0.00 0.00 0.00 73 998.0
20260505054608 22 360 9.7 29.0 0.00 0.00 0.00 73 998.3
20260505053059 22 360 8.0 19.3 0.00 0.00 0.00 72 998.3
20260505051611 23 360 9.7 24.1 0.00 0.00 0.00 72 998.5
20260505041550 23 360 9.7 24.1 0.00 0.00 0.00 70 998.9
20260505040048 23 360 9.7 20.9 0.00 0.00 0.00 70 999.1
20260505034546 23 360 9.7 20.9 0.00 0.00 0.00 70 999.1
20260505033146 23 360 8.0 22.5 0.00 0.00 0.00 69 999.0
20260505031553 23 360 8.0 20.9 0.00 0.00 0.00 68 998.8
20260505030045 23 360 8.0 17.7 0.00 0.00 0.00 68 998.8
20260505024550 24 360 8.0 24.1 0.00 0.00 0.00 67 998.6
20260505023043 24 360 8.0 22.5 0.00 0.00 0.00 66 998.3
20260505021547 24 360 8.0 19.3 0.00 0.00 0.00 66 998.4
20260505020042 25 360 9.7 24.1 0.00 0.00 0.00 65 998.3
20260505014541 25 125 9.7 22.5 0.00 0.00 0.00 63 998.4
20260505013040 25 184 11.3 22.5 0.00 0.00 0.00 62 998.1
20260505011539 25 182 9.7 29.0 0.00 0.00 0.00 62 998.2
20260505010039 26 146 9.7 30.6 0.00 0.00 0.00 61 998.5
20260505004538 26 205 11.3 35.4 0.00 0.00 0.00 60 998.6